sat.trackr.live / text

‹ back to catalog

STARLINK-5240

NORAD 54187 · 2022-141AG

PAYLOAD ACTIVE UNKNOWN

§ Identity

Operator
Country
US
Launch date
2022-10-28
Launch site
AFWTR
Launch vehicle
Mass (kg)
RCS (m²)

Purposes: comms

External: N2YO · Heavens-Above · Gunter

§ Orbital elements

Epoch: 2026-05-25T02:05:42.451296Z

Period
95.45 min
Inclination
53.2149°
Eccentricity
0.0000739
Mean motion
15.08720699 rev/d
Perigee alt
539.6 km
Apogee alt
540.6 km
Semi-major
6,918.2 km
B*
-2.2697e-3
RAAN
20.9824°
Arg perigee
166.4661°
Mean anomaly
193.6351°
Rev number
19,739

§ Raw data

STARLINK-52401 54187U 22141AG  26145.08729689 -.00036110  00000+0 -22697-2 0  99922 54187  53.2149  20.9824 0000739 166.4661 193.6351 15.08720699197399

JSON: /api/v1/satellites/54187 · /tle

For live sub-satellite position, see the globe view (requires WebGL).

§ Visibility from observer

Set your observer location to see the next 7 days of passes ≥ 10°. The values pass through the URL so the page stays shareable.

No JS? Fill the form by hand. The geolocation button needs JavaScript.